Content
SEND FEEDBACK

Daily
Averages
Monthly
Summary
United States of America

MILAN, OHIO


Home > North America > United States > Ohio
Elevation: 669 feet     Latitude: 41 16N     Longitude: 082 37W

WEATHER
 
SELECT A DAY
Number of Records: 185,765;   Date Range: 10/8/98 - 12/25/14
 
SHARE

PRINT THIS DATA

[ ← Previous Day ]
WEATHER ALMANAC - JANUARY 23, 2013
[ Next Day → ]
[ °C ]   °F
Weather ElementAverageHighLow
Temperature13.1 °F18 °F (3:53 pm)6.1 °F (1:53 am)
Dewpoint4.7 °F10.9 °F (8:53 pm)-2.9 °F (1:53 am)
Humidity70 %84 % (8:53 pm)48 % (3:53 pm)
Barometer30.21 in30.33 in (2:53 am)30.09 in (8:31 pm)
Wind Speed7 mph13.8 mph (2:53 pm)
Wind Gust20.7 mph (2:53 pm)
Weather ElementAverage
Visibility7.5 mi
Wind DirectionSW (228.8 °)

Weather ElementTotal
Precipitation---
Heating Degree Days53 (Base 65)
Averaged from 32 records on January 23, 2013
WEATHER CONDITIONS BREAKOUT
WIND DIRECTION BREAKOUT
WEATHER BY HOUR - JANUARY 23, 2013
[ °C ]   °F
Local TimeTemperatureDewpointHumidityBarometerVisibilityWind DirectionWind SpeedGust SpeedPrecipitationEventsConditions
1:53 AM6.1 °F-2.9 °F67 %30.32 in10.0 miWSW (250°)5.8 mphMostly Cloudy
2:53 AM7.0 °F-2.0 °F67 %30.33 in10.0 miWSW (250°)8.1 mphOvercast
3:53 AM8.1 °F-0.9 °F67 %30.32 in10.0 miWest (260°)10.4 mphOvercast
4:53 AM9.0 °F-0.9 °F64 %30.32 in10.0 miWNW (290°)11.5 mphOvercast
5:00 AM8.6 °F-0.4 °F67 %30.26 in10.0 miWNW (290°)9.2 mph17.3 mphOvercast
5:22 AM8.6 °F-0.4 °F67 %30.26 in10.0 miWest (280°)8.1 mphScattered Clouds
5:53 AM8.1 °F-0.9 °F67 %30.32 in10.0 miWest (270°)6.9 mphPartly Cloudy
6:53 AM8.1 °F-0.9 °F67 %30.32 in10.0 miWest (270°)6.9 mphScattered Clouds
7:53 AM9.0 °F0.0 °F67 %30.32 in10.0 miWest (280°)5.8 mphOvercast
8:53 AM10.0 °F1.0 °F67 %30.32 in10.0 miWest (260°)6.9 mphOvercast
9:53 AM10.9 °F1.9 °F67 %30.32 in10.0 miWest (270°)9.2 mphOvercast
10:53 AM12.0 °F3.0 °F67 %30.31 in10.0 miWest (260°)9.2 mphMostly Cloudy
11:25 AM14.0 °F3.2 °F62 %30.25 in10.0 miWest (260°)11.5 mphMostly Cloudy
11:53 AM14.0 °F3.9 °F64 %30.30 in10.0 miWSW (250°)9.2 mphMostly Cloudy
12:53 PM16.0 °F3.9 °F59 %30.26 in10.0 miWSW (240°)10.4 mphMostly Cloudy
1:53 PM16.0 °F3.9 °F59 %30.23 in9.0 miWSW (250°)12.7 mph18.4 mphOvercast
2:53 PM17.1 °F3.9 °F56 %30.21 in9.0 miWSW (250°)13.8 mph20.7 mphOvercast
3:53 PM18.0 °F1.0 °F48 %30.19 in10.0 miWSW (250°)13.8 mphOvercast
4:53 PM17.1 °F3.9 °F56 %30.17 in9.0 miWSW (250°)9.2 mphOvercast
5:53 PM16.0 °F7.0 °F68 %30.15 in9.0 miWSW (240°)11.5 mph0.00 inOvercast
6:53 PM15.1 °F9.0 °F77 %30.16 in8.0 miWSW (250°)4.6 mphOvercast
7:53 PM15.1 °F10.0 °F80 %30.15 in4.0 miWSW (240°)3.5 mph0.00 inSnowLight Snow
8:11 PM15.8 °F10.4 °F79 %30.10 in2.5 miWSW (240°)4.6 mph0.00 inSnowLight Snow
8:31 PM15.8 °F10.4 °F79 %30.09 in3.0 miSW (230°)4.6 mph0.00 inSnowLight Snow
8:53 PM15.1 °F10.9 °F84 %30.14 in3.0 miSW (230°)3.5 mph0.00 inSnowLight Snow
9:03 PM15.8 °F10.4 °F79 %30.09 in2.5 miSW (230°)3.5 mph0.00 inSnowLight Snow
9:18 PM15.8 °F10.4 °F79 %30.09 in3.0 miSW (220°)3.5 mph0.00 inSnowLight Snow
9:25 PM15.8 °F10.4 °F79 %30.09 in2.5 miSW (230°)3.5 mph0.00 inSnowLight Snow
9:35 PM15.8 °F10.4 °F79 %30.09 in3.0 miSW (230°)3.5 mph0.00 inSnowLight Snow
9:53 PM15.1 °F10.9 °F84 %30.13 in3.0 miCalm0.00 inSnowLight Snow
10:53 PM15.1 °F10.9 °F84 %30.12 in3.0 miCalm0.00 inSnowLight Snow
11:53 PM14.0 °F10.0 °F84 %30.12 in8.0 miCalm0.00 inOvercast
Hourly data recorded from KLPR, located miles away from Milan, Ohio







STORIES FROM OUR PARTNERS